Tracking 20712 objects as of 28-May-2020
HD Live streaming from Space Station
objects crossing your sky now

COSMOS 970 DEB

Track COSMOS 970 DEB now!
10-day predictions


NORAD ID: 15559
Int'l Code: 1977-121BM
Perigee: 925.7 km
Apogee: 1,127.8 km
Inclination: 65.6 °
Period: 105.5 minutes
Semi major axis: 7397 km
RCS: 0.0103 m2 (small)
Launch date: December 21, 1977
Source: Commonwealth of Independent States (former USSR) (CIS)
Launch site: TYURATAM MISSILE AND SPACE COMPLEX (TTMTR)

Note: This is SATELLITE DEBRIS
aabbcc
Your satellite tracking list
Your tracking list is empty




NASA's NSSDC Master Catalog

Two Line Element Set (TLE):
1 15559U 77121BM  20149.26618078  .00000030  00000-0  12899-3 0  9992
2 15559  65.5797 245.0338 0136562 267.6947 122.5391 13.64430259759039
Source of the keplerian elements: AFSPC